User: anonymous
Location: Caltech
(34.1382°N, 118.1253°W)
Time: 23:24:02
(UTC-07:00)
Language:

ATLAS 5 CENTAUR R/B - Orbit

View from above orbital plane
View from above orbital plane
View from above satellite
View from above satellite

Ground track
Ground track

The orbit data is extracted from the following two-line orbital elements,

1 30778U 07006G   14274.08504647  .00106084  00000-0  11043-2 0  1150
2 30778 035.6808 156.8075 0003467 069.9033 076.7918 15.63268763421427
Epoch (UTC): 01 October 2014 02:02:28
Eccentricity: 0.0003467
inclination: 35.6808°
perigee height: 376 km
apogee height: 380 km
right ascension of ascending node: 156.8075°
argument of perigee: 69.9033°
revolutions per day: 15.63268763
mean anomaly at epoch: 76.7918°
orbit number at epoch: 42142

The dashed part of the orbit path shows where the satellite is in the earth's shadow,  

DLR